TimeMDT,TemperatureF,Dew PointF,Humidity,Sea Level PressureIn,VisibilityMPH,Wind Direction,Wind SpeedMPH,Gust SpeedMPH,PrecipitationIn,Events,Conditions,WindDirDegrees,DateUTC
12:51 AM,34.0,30.0,85,30.06,10.0,ENE,3.5,-,N/A,,Clear,60,2013-10-12 06:51:00
1:51 AM,33.1,28.9,85,30.08,10.0,Calm,Calm,-,N/A,,Clear,0,2013-10-12 07:51:00
2:51 AM,33.1,30.0,89,30.07,10.0,Calm,Calm,-,N/A,,Clear,0,2013-10-12 08:51:00
3:51 AM,33.1,30.0,89,30.07,10.0,North,3.5,-,N/A,,Clear,350,2013-10-12 09:51:00
4:51 AM,34.0,30.9,89,30.05,10.0,West,4.6,-,N/A,,Clear,270,2013-10-12 10:51:00
5:51 AM,35.1,32.0,89,30.04,10.0,Calm,Calm,-,N/A,,Clear,0,2013-10-12 11:51:00
6:51 AM,34.0,32.0,92,30.05,10.0,Calm,Calm,-,N/A,,Clear,0,2013-10-12 12:51:00
7:51 AM,35.1,32.0,89,30.06,10.0,NNE,3.5,-,N/A,,Mostly Cloudy,20,2013-10-12 13:51:00
8:51 AM,37.9,34.0,86,30.06,10.0,NNW,5.8,-,N/A,,Mostly Cloudy,340,2013-10-12 14:51:00
9:51 AM,42.1,35.1,76,30.06,10.0,NNW,6.9,-,N/A,,Partly Cloudy,330,2013-10-12 15:51:00
10:51 AM,44.1,32.0,63,30.05,10.0,NNW,3.5,-,N/A,,Clear,330,2013-10-12 16:51:00
11:51 AM,48.9,33.1,54,30.03,10.0,Calm,Calm,-,N/A,,Clear,0,2013-10-12 17:51:00
12:51 PM,53.1,36.0,52,30.01,10.0,Variable,3.5,-,N/A,,Partly Cloudy,0,2013-10-12 18:51:00
1:51 PM,54.0,34.0,47,29.97,10.0,NNW,4.6,-,N/A,,Overcast,330,2013-10-12 19:51:00
2:51 PM,59.0,33.1,38,29.94,10.0,NNE,4.6,-,N/A,,Overcast,30,2013-10-12 20:51:00
3:51 PM,62.1,33.1,34,29.91,10.0,East,9.2,-,N/A,,Mostly Cloudy,80,2013-10-12 21:51:00
4:51 PM,60.1,32.0,35,29.90,10.0,Calm,Calm,-,N/A,,Overcast,0,2013-10-12 22:51:00
5:51 PM,59.0,36.0,42,29.90,10.0,ENE,3.5,-,N/A,,Partly Cloudy,70,2013-10-12 23:51:00
6:51 PM,55.0,37.9,53,29.91,10.0,East,4.6,-,N/A,,Mostly Cloudy,90,2013-10-13 00:51:00
7:51 PM,53.1,37.0,55,29.91,10.0,NNE,3.5,-,N/A,,Clear,20,2013-10-13 01:51:00
8:51 PM,50.0,39.0,66,29.90,10.0,West,3.5,-,N/A,,Scattered Clouds,260,2013-10-13 02:51:00
9:51 PM,51.1,39.9,66,29.89,10.0,SSW,5.8,-,N/A,,Overcast,210,2013-10-13 03:51:00
10:51 PM,50.0,41.0,71,29.90,10.0,Calm,Calm,-,N/A,,Overcast,0,2013-10-13 04:51:00
11:51 PM,51.1,39.0,63,29.91,10.0,South,9.2,-,0.00,Rain,Light Rain,180,2013-10-13 05:51:00